Location: La Chapelle
(48.3135°N, 1.3085°W)
Time: 08:49:53
(UTC+00:00)

Meteor 2-20 - Pass Details

Date: 03 March 2021
Orbit: 940 x 958 km, 82.5° (Epoch: 13 April)

Event Time Altitude Azimuth Distance (km) Brightness Sun altitude
Rises 20:28:11 0° 349° (N) 3,623 7.9 -26.2°
Reaches altitude 10° 20:30:40 10° 349° (N) 2,676 7.2 -26.6°
Maximum altitude 20:36:48 82° 263° (W) 963 4.4 -27.6°
Enters shadow 20:38:16 55° 184° (S) 1,133 4.6 -27.8°
